Location: *
(57.8420°S, 159.8600°W)
Time: 05:18:40
(UTC+00:00)

Cosmos 1242 Rocket - Pass Details

Date: 18 May 2021
Orbit: 446 x 484 km, 81.2° (Epoch: 20 June)

Event Time Altitude Azimuth Distance (km) Brightness Sun altitude
Rises 03:49:36 0° 192° (SSW) 2,604 6.2 -10.6°
Reaches altitude 10° 03:51:51 10° 183° (S) 1,717 5.2 -10.8°
Maximum altitude 03:55:22 36° 115° (ESE) 811 3.2 -11.3°
Drops below altitude 10° 03:58:50 10° 46° (NE) 1,698 5.0 -11.7°
Sets 04:01:04 0° 37° (NE) 2,570 6.0 -12.0°
